Rockford, IL

11:01 PM CST on November 19, 2017 (GMT -0600)
Greater Rockford

Weather History for KRFD - November, 2014

Change the Weather History Date:

Friday, November 21, 2014

  Actual Average Record
Temperature  
Mean Temperature 20 °F 36 °F  
Max Temperature 34 °F 44 °F 73 °F (1913)
Min Temperature 5 °F 28 °F 3 °F (1964)
Degree Days  
Heating Degree Days 45 29  
Month to date heating degree days 671 499  
Since 1 July heating degree days 1233 1052  
Cooling Degree Days 0 0  
Month to date cooling degree days 0 0  
Year to date cooling degree days 729 820  
Moisture  
Dew Point 6 °F    
Average Humidity 54    
Maximum Humidity 83    
Minimum Humidity 25    
Precipitation  
Precipitation T in 0.08 in 1.15 in (1934)
Month to date precipitation 0.56 1.83  
Year to date precipitation 31.50 33.51  
Snow  
Snow 0.00 in 0.10 in 3.90 in (2015)
Month to date snowfall 1.7 0.6  
Since 1 July snowfall 1.8 0.7  
Since 1 September snowfall 1.8 0.7  
Snow Depth 0.00 in    
Sea Level Pressure  
Sea Level Pressure 30.36 in    
Wind  
Wind Speed 9 mph (South)    
Max Wind Speed 21 mph    
Max Gust Speed 24 mph    
Visibility 10 miles    
Events Rain    
T = Trace of Precipitation, MM = Missing Value Source: NWS Daily Summary

Daily Weather History Graph

Daily Weather History Graph

Search for Another Location

Airport or City:

Trip Planner

Search our weather history database for the weather conditions in past years. The results will help you decide how hot, cold, wet, or windy it might be!

Date:

Astronomy

Nov. 21, 2014 Rise Set
Actual Time 6:54 AM CST 4:30 PM CST
Civil Twilight 6:23 AM CST 5:00 PM CST
Nautical Twilight 5:49 AM CST 5:34 PM CST
Astronomical Twilight 5:15 AM CST 6:08 PM CST
Moon 5:48 AM CST (11/21) 4:15 PM CST (11/21)
Length of Visible Light 10h 37m
Length of Day
9h 36m
Waning Crescent, 1% of the Moon is Illuminated
Nov 21
Waning Crescent
Nov 22
New
Nov 29
First Quarter
Dec 6
Full
Dec 14
Last Quarter

Hourly Weather History & Observations

Time (CST) Temp. Windchill Dew Point Humidity Pressure Visibility Wind Dir Wind Speed Gust Speed Precip Events Conditions
12:54 AM 10.9 °F - 3.0 °F 70% 30.41 in 10.0 mi Calm Calm - N/A   Clear
1:54 AM 10.0 °F - 3.0 °F 73% 30.42 in 10.0 mi Calm Calm - N/A   Clear
2:54 AM 8.1 °F - 1.9 °F 76% 30.44 in 10.0 mi Calm Calm - N/A   Clear
3:54 AM 8.1 °F - 1.9 °F 76% 30.45 in 10.0 mi Calm Calm - N/A   Clear
4:54 AM 8.1 °F - 1.9 °F 76% 30.45 in 10.0 mi Calm Calm - N/A   Clear
5:54 AM 5.0 °F -4.1 °F -0.0 °F 80% 30.47 in 10.0 mi South 4.6 mph - N/A   Clear
6:54 AM 6.8 °F - 1.4 °F 79% 30.48 in 10.0 mi Calm Calm - N/A   Partly Cloudy
7:54 AM 8.6 °F - 3.2 °F 79% 30.49 in 10.0 mi Calm Calm - N/A   Partly Cloudy
8:54 AM 16.0 °F 6.3 °F 8.1 °F 71% 30.50 in 10.0 mi South 6.9 mph - N/A   Clear
9:54 AM 23.0 °F 13.1 °F 7.0 °F 50% 30.48 in 10.0 mi SSE 9.2 mph - N/A   Clear
10:54 AM 27.0 °F 16.1 °F 5.0 °F 39% 30.47 in 10.0 mi South 12.7 mph - N/A   Clear
11:54 AM 30.0 °F 18.7 °F 3.9 °F 33% 30.44 in 10.0 mi South 16.1 mph - N/A   Partly Cloudy
12:54 PM 32.0 °F 21.6 °F 3.0 °F 29% 30.41 in 10.0 mi South 15.0 mph - N/A   Partly Cloudy
1:54 PM 34.0 °F 23.0 °F 3.0 °F 27% 30.38 in 10.0 mi South 18.4 mph - N/A   Partly Cloudy
2:54 PM 33.1 °F 22.2 °F 1.9 °F 27% 30.35 in 10.0 mi South 17.3 mph - N/A   Partly Cloudy
3:54 PM 32.0 °F 22.1 °F 3.0 °F 29% 30.35 in 10.0 mi South 13.8 mph - N/A   Partly Cloudy
4:54 PM 28.9 °F 20.4 °F 3.9 °F 35% 30.33 in 10.0 mi South 9.2 mph - N/A   Partly Cloudy
5:54 PM 28.9 °F 19.2 °F 3.9 °F 35% 30.31 in 10.0 mi South 11.5 mph - N/A   Mostly Cloudy
6:54 PM 28.9 °F 18.6 °F 5.0 °F 36% 30.29 in 10.0 mi South 12.7 mph - N/A   Overcast
7:54 PM 30.9 °F 20.7 °F 8.1 °F 38% 30.27 in 10.0 mi SSE 13.8 mph - N/A   Overcast
8:13 PM 30.9 °F 19.8 °F 9.0 °F 40% 30.22 in 10.0 mi South 16.1 mph - N/A   Overcast
8:54 PM 32.0 °F 22.1 °F 10.9 °F 42% 30.25 in 10.0 mi South 13.8 mph - N/A   Overcast
9:54 PM 33.1 °F 22.6 °F 12.9 °F 43% 30.22 in 10.0 mi South 16.1 mph - N/A   Overcast
10:54 PM 33.1 °F 22.6 °F 14.0 °F 46% 30.19 in 10.0 mi South 16.1 mph - N/A   Overcast
11:39 PM 32.0 °F 22.1 °F 19.9 °F 61% 30.15 in 10.0 mi South 13.8 mph - 0.00 in Rain Light Freezing Rain
11:54 PM 32.0 °F 22.1 °F 21.0 °F 64% 30.17 in 10.0 mi South 13.8 mph - 0.00 in   Overcast